Location: Browne Barr
(41.2080°N, 111.9480°W)
Time: 05:24:00
(UTC+00:00)

X-37B - Pass Details

Date: 02 August 2021
Orbit: 381 x 393 km, 45.0° (Epoch: 29 August)

Event Time Altitude Azimuth Distance (km) Brightness Sun altitude
Exits shadow 11:49:31 - 261° (W) 1,573 3.1 -6.7°
Reaches altitude 10° 11:49:58 10° 262° (W) 1,394 2.8 -6.6°
Maximum altitude 11:53:05 62° 344° (NNW) 434 0.9 -6.1°
Drops below altitude 10° 11:56:12 10° 66° (ENE) 1,399 5.3 -5.6°
Sets 11:58:17 0° 70° (ENE) 2,255 6.8 -5.3°
